Weather History for Garden City, KS

Change the Weather History Date:

Tuesday, October 11, 2011

  Actual Average Record
Temperature  
Mean Temperature 60 °F 57 °F  
Max Temperature 72 °F 72 °F 97 °F (1975)
Min Temperature 48 °F 43 °F 24 °F (1948)
Degree Days  
Heating Degree Days 6 8  
Month to date heating degree days 77  
Since 1 July heating degree days 149  
Cooling Degree Days 0 1  
Month to date cooling degree days 15  
Year to date cooling degree days 1293  
Growing Degree Days 10 (Base 50)    
Moisture  
Dew Point 48 °F    
Average Humidity 75    
Maximum Humidity 100    
Minimum Humidity 34    
Precipitation  
Precipitation 0.01 in 0.05 in 0.53 in (2008)
Month to date precipitation 0.54  
Year to date precipitation 17.66  
Sea Level Pressure  
Sea Level Pressure 29.77 in    
Wind  
Wind Speed 10 mph (SW)    
Max Wind Speed 20 mph    
Max Gust Speed -    
Visibility 7 miles    
Events      
T = Trace of Precipitation, MM = Missing Value Source: NWS Daily Summary

Daily Weather History Graph

Daily Weather History Graph

Search for Another Location

Airport:

Trip Planner

Search our weather history database for the weather conditions in past years. The results will help you decide how hot, cold, wet, or windy it might be!

Date:

Astronomy

Oct. 11, 2011 Rise Set
Actual Time 7:47 AM CDT 7:11 PM CDT
Civil Twilight 7:21 AM CDT 7:37 PM CDT
Nautical Twilight 6:50 AM CDT 8:08 PM CDT
Astronomical Twilight 6:20 AM CDT 8:38 PM CDT
Moon 6:45 PM CDT (10/11) 7:26 AM CDT (10/11)
Length of Visible Light 12h 16m
Length of Day
11h 23m
Full, 100% of the Moon is Illuminated
Oct 11
Full
Oct 11
Full
Oct 19
Last Quarter
Oct 26
New
Nov 2
First Quarter

Hourly Weather History & Observations

Time (CDT) Temp. Dew Point Humidity Pressure Visibility Wind Dir Wind Speed Gust Speed Precip Events Conditions
12:54 AM 53.1 °F 51.1 °F 93% 29.86 in 7.0 mi SE 10.4 mph - N/A   Clear
1:54 AM 52.0 °F 51.1 °F 97% 29.84 in 5.0 mi SSE 10.4 mph - N/A   Clear
2:54 AM 52.0 °F 51.1 °F 97% 29.82 in 5.0 mi SSE 12.7 mph - N/A   Clear
3:54 AM 52.0 °F 51.1 °F 97% 29.81 in 6.0 mi SSE 9.2 mph - N/A   Clear
4:54 AM 51.1 °F 50.0 °F 96% 29.80 in 7.0 mi SSE 5.8 mph - N/A   Clear
5:54 AM 51.1 °F 50.0 °F 96% 29.80 in 7.0 mi SSE 8.1 mph - N/A   Clear
6:54 AM 50.0 °F 48.9 °F 96% 29.80 in 6.0 mi SSE 6.9 mph - N/A   Clear
7:54 AM 48.2 °F 48.2 °F 100% 29.81 in 8.0 mi SSE 11.5 mph - N/A   Partly Cloudy
8:54 AM 52.0 °F 51.1 °F 97% 29.78 in 8.0 mi South 10.4 mph - N/A   Scattered Clouds
8:55 AM 51.8 °F 51.8 °F 100% 29.82 in 4.0 mi South 11.5 mph - N/A   Clear
8:57 AM 53.6 °F 51.8 °F 94% 29.82 in 8.0 mi South 11.5 mph - N/A   Scattered Clouds
9:54 AM 55.9 °F 48.9 °F 77% 29.77 in 10.0 mi SSW 19.6 mph - 0.01 in   Scattered Clouds
10:54 AM 59.0 °F 46.0 °F 62% 29.77 in 10.0 mi SW 15.0 mph - N/A   Scattered Clouds
11:54 AM 62.1 °F 41.0 °F 46% 29.75 in 10.0 mi WSW 13.8 mph - N/A   Scattered Clouds
12:54 PM 66.0 °F 42.1 °F 42% 29.73 in 10.0 mi West 9.2 mph - N/A   Scattered Clouds
1:54 PM 68.0 °F 41.0 °F 37% 29.73 in 10.0 mi WSW 8.1 mph - N/A   Clear
2:54 PM 71.1 °F 43.0 °F 36% 29.70 in 10.0 mi WSW 10.4 mph - N/A   Clear
3:54 PM 70.0 °F 44.1 °F 39% 29.69 in 10.0 mi Variable 5.8 mph - N/A   Clear
4:54 PM 71.1 °F 41.0 °F 34% 29.69 in 10.0 mi WNW 5.8 mph - N/A   Clear
5:54 PM 66.9 °F 48.0 °F 51% 29.71 in 3.0 mi NW 11.5 mph - N/A   Haze
6:54 PM 64.9 °F 48.9 °F 56% 29.73 in 5.0 mi NNW 9.2 mph - N/A   Haze
7:54 PM 59.0 °F 50.0 °F 72% 29.76 in 5.0 mi NNW 8.1 mph - N/A   Haze
8:54 PM 54.0 °F 48.0 °F 80% 29.78 in 8.0 mi NNW 9.2 mph - N/A   Clear
9:54 PM 54.0 °F 48.0 °F 80% 29.79 in 9.0 mi Calm Calm - N/A   Clear
10:54 PM 52.0 °F 46.9 °F 83% 29.78 in 6.0 mi WNW 4.6 mph - N/A   Haze
11:54 PM 50.0 °F 46.9 °F 89% 29.78 in 5.0 mi NW 6.9 mph - N/A   Clear